x

9087023 - Ludington, Mi (ldtm4) Weather Station

2:30am - Tue 1st Sep 2015 All times are CDT. -5 hours from GMT.

  • Wind
    3mph, 5mph gusts
  • Air Temp 65°f
  • Sea Pressure 1015mb
  • 9087023 - Ludington, Mi
  • 9087023 - Ludington, Mi

More Historic Weather Station data

Upgrade to MSW Pro to gain access to the past 30 days of data for over 8000 Wavebouys and Weather Stations around the globe.

Join Pro

Comparision Forecast

View Surf forecast
   
Tue 09/01 2:30am 3 5 mph 1015mb 65f
2:24am 3 5 mph 1015.1mb 64f
2:18am 2 3 mph 1015.1mb 64f
2:12am 2 3 mph 1015.1mb 64f
2:06am 2 3 mph 1015.1mb 64f
2:00am 2 3 mph - 64f
1:54am 2 5 mph - 64f
1:48am 3 5 mph 1015mb 64f
1:42am 5
mph
1015mb 64f
1:36am 2 3 mph 1015mb 64f
1:30am 2 6 mph 1015.1mb 65f
1:24am 2
mph
1015.1mb 64f
1:18am 2
mph
1015.1mb 64f
1:12am 1 2 mph 1015.1mb 65f
1:06am 2 3 mph 1015.1mb 65f
1:00am 2
mph
1015.2mb 65f
12:54am 2
mph
1015.2mb 65f
12:48am 1 3 mph 1015.2mb 65f
12:42am 2 5 mph 1015.2mb 65f
12:36am 3 5 mph 1015.2mb 65f
12:30am 3 5 mph 1015.1mb 65f
12:24am 3 5 mph 1015.1mb 66f
12:18am 3 5 mph 1015.1mb 67f
12:12am 2 3 mph 1015.1mb 68f
12:06am 2 5 mph 1015.1mb 68f
12:00am 2 3 mph 1015.2mb -
Mon 08/31 11:54pm 2 10 mph 1015.2mb -
11:48pm 2 3 mph 1015.2mb 67f
11:42pm 1 2 mph 1015.2mb 66f
11:36pm 2
mph
1015.1mb 68f
11:30pm 1 5 mph 1015mb 68f
11:24pm  -  2 mph 1014.9mb 68f
11:18pm 2 3 mph 1014.9mb 69f
11:12pm 1 3 mph 1014.9mb 68f
11:06pm 1 3 mph 1014.9mb 68f
11:00pm 2 3 mph - 68f
10:54pm 2 5 mph - 68f
10:48pm  -  3 mph 1015.1mb 68f
10:42pm 2 6 mph 1015.1mb 67f
10:36pm 2
mph
1015.1mb 67f
10:30pm  -  3 mph 1015.2mb 67f
10:24pm  -  2 mph 1015.2mb 67f
10:18pm 1 2 mph 1015.2mb 68f
10:12pm  -  2 mph 1015.2mb 68f
10:06pm 1 2 mph 1015.2mb 68f
9:54pm 2 3 mph 1015.3mb 68f
9:48pm 2 3 mph 1015.2mb 67f
9:42pm 2
mph
1015.2mb 67f
9:36pm 2 3 mph 1015.2mb 67f
9:30pm 2 3 mph 1015.2mb 67f
9:24pm 2 3 mph 1015.1mb 67f
9:18pm 2 3 mph - 67f
9:12pm 2 3 mph - 68f
9:06pm 2
mph
- 68f
9:00pm 1 2 mph 1015.1mb 68f
8:54pm 2
mph
1015.1mb 68f
8:48pm 2
mph
1015.1mb 68f
8:42pm 2
mph
1015mb 69f
8:36pm 1 2 mph 1014.9mb 69f
8:30pm 2
mph
1014.9mb -
8:24pm 1 2 mph 1014.9mb -
8:18pm 1 3 mph 1015mb -
8:12pm 1 2 mph 1015mb -
8:06pm  -  2 mph 1014.8mb -
8:00pm  -  2 mph 1014.8mb 70f
7:54pm 1 2 mph 1014.8mb 70f
7:48pm 2 3 mph 1014.7mb 69f
7:42pm 1 2 mph 1014.7mb 69f
7:36pm 1 2 mph 1014.7mb 69f
7:30pm 2 5 mph 1014.7mb 69f
7:24pm 2 3 mph 1014.7mb 69f
7:18pm 2 6 mph 1014.7mb 69f
7:12pm 5 7 mph 1014.8mb 69f
7:06pm 6 8 mph 1014.8mb 70f
7:00pm 6 8 mph 1014.7mb 70f
6:54pm 7 9 mph 1014.7mb 70f
6:48pm 7 9 mph 1014.7mb 70f
6:42pm 7 9 mph 1014.7mb 70f
6:36pm 8 10 mph 1014.7mb 69f
6:00pm 3 13 mph 1014.8mb 70f
5:54pm 6 11 mph 1014.7mb 70f
5:48pm 7 10 mph 1014.7mb 70f
5:42pm 7 10 mph 1014.6mb 70f
5:36pm 5 9 mph 1014.7mb 70f
5:30pm 7 10 mph 1014.7mb 70f
5:24pm 8 14 mph 1014.7mb 70f
5:18pm 10 14 mph 1014.7mb 70f
5:12pm 8 10 mph 1014.7mb 70f
5:06pm 8 10 mph 1014.8mb 70f
5:00pm 9 11 mph 1014.8mb 70f
4:54pm 8 10 mph 1014.9mb 70f
4:48pm 8 11 mph 1014.9mb 69f
4:42pm 6 11 mph 1014.8mb 69f
4:36pm 6 11 mph 1014.9mb 69f
4:30pm 6 10 mph 1014.9mb 69f
4:24pm 8 11 mph 1014.9mb 69f
4:18pm 8 13 mph 1014.9mb 69f
4:12pm 8 13 mph 1015mb 69f
4:06pm 10 14 mph 1015.1mb 69f
4:00pm 10 14 mph 1015.1mb 69f
3:54pm 7 11 mph 1015.1mb 69f
3:48pm 5 13 mph 1015.2mb 69f
3:42pm 5 10 mph 1015.2mb 69f
3:36pm 5 10 mph 1015.3mb 69f
3:30pm 8 11 mph 1015.3mb 69f
3:24pm 7 13 mph 1015.4mb 69f
3:18pm 7 14 mph 1015.5mb 69f
3:12pm 7 11 mph 1015.6mb 69f
3:06pm 7 13 mph 1015.6mb 69f
3:00pm 7 14 mph 1015.6mb 69f
2:54pm 10 13 mph 1015.5mb 69f
2:48pm 6 13 mph 1015.6mb 70f
2:42pm 6 13 mph 1015.5mb 69f
2:36pm 7 13 mph 1015.6mb 69f
2:30pm 10 14 mph 1015.5mb 69f
2:24pm 7 14 mph 1015.6mb 70f
2:18pm 9 13 mph 1015.7mb 69f
2:12pm 7 14 mph 1015.8mb 69f
2:06pm 8 11 mph 1015.8mb 69f
2:00pm 7 11 mph 1015.9mb 70f
1:54pm 6 11 mph 1015.9mb 70f
1:48pm 11 14 mph 1015.8mb 69f
1:42pm 8 13 mph 1015.9mb 69f
1:36pm 11 14 mph 1015.9mb 69f
1:30pm 8 13 mph 1016mb 69f
1:24pm 8 13 mph 1016mb 69f
1:18pm 10 14 mph 1016mb 69f
1:12pm 9 14 mph 1016.1mb 69f
1:06pm 7 13 mph 1016.2mb 69f
1:00pm 10 13 mph 1016.1mb 69f
12:54pm 7 10 mph 1016.2mb 69f
12:48pm 10 13 mph 1016.2mb 69f
12:42pm 6 14 mph 1016.1mb 69f
12:36pm 7 11 mph 1016.1mb 69f
12:30pm 8 14 mph 1016mb 69f
12:24pm 9 11 mph 1016.1mb 69f
12:18pm 9 11 mph 1016.2mb 69f
12:12pm 10 13 mph 1016.3mb 69f
12:06pm 8 13 mph 1016.3mb 69f
12:00pm 8 13 mph 1016.4mb 69f
11:54am 9 13 mph 1016.4mb 69f
11:48am 10 14 mph 1016.5mb 68f
11:42am 8 14 mph 1016.5mb 69f
11:36am 9 14 mph 1016.5mb 69f
11:30am 9 15 mph 1016.5mb 69f
11:24am 11 14 mph 1016.5mb 68f
11:18am 11 14 mph 1016.5mb 68f
11:12am 9 14 mph 1016.4mb 69f
11:06am 9 11 mph 1016.4mb 68f
11:00am 10 13 mph 1016.5mb 69f
Fri 08/28 12:30pm 8 13 mph 1018.4mb 68f
12:24pm 9 13 mph 1018.5mb 68f
12:18pm 9 13 mph 1018.5mb 68f
12:12pm 8 13 mph 1018.6mb 68f
12:06pm 8 13 mph 1018.6mb 68f
12:00pm 9 14 mph 1018.6mb 68f
11:54am 9 15 mph 1018.7mb 68f
11:48am 6 13 mph 1018.9mb 68f
11:42am 10 14 mph 1019mb 67f
11:36am 5 13 mph 1019mb 68f
11:30am 7 13 mph 1019mb 68f
11:24am 9 13 mph 1019.1mb 68f
11:18am 8 13 mph 1019.2mb 68f
11:12am 9 14 mph 1019.2mb 67f
11:06am 10 13 mph 1019.2mb 67f
11:00am 8 13 mph 1019.3mb 67f
10:54am 7 11 mph 1019.3mb 67f
10:48am 8 11 mph 1019.4mb 67f
10:42am 10 11 mph 1019.4mb 67f
10:36am 8 13 mph 1019.2mb 67f
10:30am 10 13 mph 1019.1mb 67f
10:24am 11 15 mph 1019.2mb 67f
10:18am 11 13 mph 1019.1mb 67f
10:12am 10 13 mph 1019mb 67f
10:06am 8 10 mph 1019mb 66f
10:00am 8 13 mph 1019mb 67f
9:54am 7 10 mph 1018.9mb 66f
9:48am 7 10 mph 1019mb 67f
9:42am 8 11 mph 1019mb 66f
9:36am 8 11 mph 1018.9mb 66f
9:30am 7 9 mph 1018.8mb 66f
9:24am 7 9 mph 1018.7mb 66f
9:18am 5 8 mph 1018.8mb 66f
9:12am 2 5 mph 1018.8mb 65f
9:06am 2 5 mph 1018.9mb 65f
9:00am 1 3 mph 1019mb 65f
8:54am 1 3 mph 1018.9mb 64f
8:48am 2 5 mph 1018.9mb 64f
8:42am 2 3 mph 1019mb 63f
8:36am 3 5 mph 1019mb 62f
8:30am 3 5 mph 1019.1mb 62f